Weather History for EGDR - March, 2014

Change the Weather History Date:

Sunday, March 30, 2014

  Actual Average Record
Temperature  
Mean Temperature 51 °F -  
Max Temperature 54 °F 51 °F 59 °F (2003)
Min Temperature 48 °F 42 °F 33 °F (1997)
Degree Days  
Heating Degree Days 14    
Growing Degree Days 1 (Base 50)    
Moisture  
Dew Point 49 °F    
Average Humidity 91    
Maximum Humidity 100    
Minimum Humidity 72    
Precipitation  
Precipitation 0.02 in - - ()
Sea Level Pressure  
Sea Level Pressure 29.77 in    
Wind  
Wind Speed 9 mph ()    
Max Wind Speed 15 mph    
Max Gust Speed -    
Visibility 6.5 miles    
Events Rain , Snow    
Averages and records for this station are not official NWS values.
T = Trace of Precipitation, MM = Missing Value Source: Averaged Metar Reports

Daily Weather History Graph

Daily Weather History Graph

Search for Another Location

Airport or City:

Trip Planner

Search our weather history database for the weather conditions in past years. The results will help you decide how hot, cold, wet, or windy it might be!

Date:

Astronomy

Mar. 30, 2014 Rise Set
Actual Time 7:02 AM BST 7:49 PM BST
Civil Twilight 6:29 AM BST 8:22 PM BST
Nautical Twilight 5:50 AM BST 9:01 PM BST
Astronomical Twilight 5:09 AM BST 9:43 PM BST
Moon 6:41 AM BST (3/30) 7:48 PM BST (3/30)
Length of Visible Light 13h 52m
Length of Day
12h 47m
Waning Crescent, 0% of the Moon is Illuminated
Mar 30
Waning Crescent
Mar 30
New
Apr 7
First Quarter
Apr 15
Full
Apr 22
Last Quarter

Hourly Weather History & Observations

Time (BST) Temp. Dew Point Humidity Pressure Visibility Wind Dir Wind Speed Gust Speed Precip Events Conditions
12:00 AM 51 °F 47 °F 80% 29.77 in 11 mi SSE 10.4 mph - -   Overcast
12:50 AM 50.0 °F 46.4 °F 87% 29.74 in 6.2 mi South 11.5 mph - N/A Rain Light Rain
2:00 AM 51 °F 47 °F 80% 29.76 in 11 mi South 11.5 mph - - Rain Light Rain
2:50 AM 50.0 °F 48.2 °F 94% 29.77 in 6.2 mi South 8.1 mph - N/A Rain Light Rain
3:00 AM 51 °F 47 °F 83% 29.77 in 10 mi South 8.1 mph - - Rain Light Rain
3:50 AM 50.0 °F 48.2 °F 94% 29.74 in 6.2 mi South 6.9 mph - N/A Rain Light Rain
4:00 AM 50 °F 48 °F 89% 29.77 in 10 mi South 6.9 mph - - Rain Light Rain
4:50 AM 50.0 °F 48.2 °F 94% 29.74 in 6.2 mi South 6.9 mph - N/A Rain Light Rain
5:00 AM 50 °F 48 °F 90% 29.77 in 9 mi South 6.9 mph - - Rain Light Rain
5:50 AM 50.0 °F 48.2 °F 94% 29.74 in 6.2 mi SSE 6.9 mph - N/A   Overcast
6:00 AM 49 °F 48 °F 95% 29.77 in 7 mi SSE 6.9 mph - - Rain Light Rain
6:50 AM 48.2 °F 48.2 °F 100% 29.77 in 6.2 mi East 6.9 mph - N/A   Mostly Cloudy
7:00 AM 49 °F 48 °F 94% 29.78 in 6 mi East 6.9 mph - - Snow Rain
7:50 AM 48.2 °F 48.2 °F 100% 29.77 in 6.2 mi SE 5.8 mph - N/A   Overcast
8:00 AM 49 °F 48 °F 95% 29.78 in 6 mi SE 5.8 mph - -   Mist
8:50 AM 50.0 °F 48.2 °F 94% 29.77 in 5.0 mi East 9.2 mph - N/A Rain Light Rain
9:00 AM 49 °F 49 °F 98% 29.80 in 5 mi East 9.2 mph - - Rain Light Rain
9:50 AM 50.0 °F 50.0 °F 100% 29.77 in 5.0 mi East 11.5 mph - N/A Rain Light Rain
10:00 AM 50 °F 49 °F 95% 29.80 in 5 mi East 11.5 mph - - Rain Light Rain
10:50 AM 50.0 °F 50.0 °F 100% 29.80 in 6.2 mi East 9.2 mph - N/A Rain Light Rain
11:00 AM 50 °F 50 °F 98% 29.81 in 6 mi East 9.2 mph - - Rain Light Rain
11:50 AM 50.0 °F 50.0 °F 100% 29.77 in 6.2 mi East 12.7 mph - N/A   Overcast
12:00 PM 50 °F 49 °F 95% 29.79 in 10 mi East 12.7 mph - - Rain Light Rain
12:50 PM 51.8 °F 48.2 °F 88% 29.77 in 6.2 mi East 12.7 mph - N/A   Haze
1:00 PM 51 °F 49 °F 90% 29.79 in 10 mi East 12.7 mph - -   Haze
1:50 PM 53.6 °F 50.0 °F 88% 29.77 in 6.2 mi East 13.8 mph - N/A   Haze
2:00 PM 53 °F 49 °F 84% 29.77 in 10 mi East 13.8 mph - -   Haze
2:50 PM 53.6 °F 50.0 °F 88% 29.74 in 6.2 mi East 15.0 mph - N/A   Haze
3:00 PM 54 °F 49 °F 78% 29.77 in 11 mi East 15.0 mph - -   Haze
3:50 PM 53.6 °F 48.2 °F 82% 29.74 in 6.2 mi East 13.8 mph - N/A   Haze
4:00 PM 53 °F 48 °F 76% 29.77 in 11 mi East 13.8 mph - -   Haze
4:50 PM 53.6 °F 48.2 °F 82% 29.74 in 6.2 mi ESE 15.0 mph - N/A   Haze
5:00 PM 54 °F 47 °F 72% 29.76 in 11 mi ESE 15.0 mph - -   Haze
5:50 PM 51.8 °F 48.2 °F 88% 29.74 in 6.2 mi East 12.7 mph - N/A Rain Light Rain
6:00 PM 52 °F 47 °F 79% 29.77 in 10 mi East 12.7 mph - - Rain Light Rain
6:50 PM 51.8 °F 48.2 °F 88% 29.77 in 6.2 mi ESE 6.9 mph - N/A   Haze
7:00 PM 51 °F 48 °F 86% 29.78 in 7 mi ESE 6.9 mph - - Rain Light Rain
7:50 PM 50.0 °F 48.2 °F 94% 29.77 in 3.1 mi East 8.1 mph - N/A Rain Light Rain
8:00 PM 50 °F 48 °F 90% 29.78 in 3 mi East 8.1 mph - - Rain Light Rain
8:50 PM 50.0 °F 48.2 °F 94% 29.77 in 6.2 mi East 9.2 mph - N/A Rain Light Rain
9:00 PM 50 °F 48 °F 91% 29.79 in 6 mi East 9.2 mph - - Rain Light Rain
9:50 PM 50.0 °F 48.2 °F 94% 29.80 in 5.0 mi SE 6.9 mph - N/A Rain Light Rain
10:00 PM 50 °F 49 °F 94% 29.80 in 5 mi SE 6.9 mph - - Rain Light Rain
10:50 PM 50.0 °F 50.0 °F 100% 29.80 in 2.5 mi South 5.8 mph - N/A   Overcast
11:00 PM 50 °F 49 °F 96% 29.81 in 2 mi South 5.8 mph - - Rain Light Rain
11:50 PM 50.0 °F 50.0 °F 100% 29.80 in 2.2 mi South 8.1 mph - N/A   Mostly Cloudy
12:00 AM 51 °F 50 °F 94% 29.81 in 2 mi South 8.1 mph - -   Mist
12:50 AM 50.0 °F 50.0 °F 100% 29.80 in 1.9 mi SSE 6.9 mph - N/A   Mostly Cloudy